HBPHC LSZR-EDNY

Flight info

Callsign HBPHC
Flight time 0h 11m
Altitude
Route
Aircraft PA28

Departure

Time 2026-04-28 18:16
Airport Sankt Gallen Altenrhein Airport (LSZR)

Arrival

Time 2026-04-28 18:27
Airport Bodensee Airport Friedrichshafen (EDNY)
Time Latitude Longitude Altitude Speed Heading
2026-04-28 18:15 47.48784 9.54429 1917 ft 79 kts 294°
2026-04-28 18:16 47.49142 9.53803 2139 ft 82 kts 322°
2026-04-28 18:16 47.49649 9.53413 2375 ft 83 kts 337°
2026-04-28 18:16 47.50204 9.53081 2555 ft 90 kts 337°
2026-04-28 18:16 47.50803 9.52874 2808 ft 87 kts 348°
2026-04-28 18:17 47.51411 9.52850 3010 ft 91 kts
2026-04-28 18:17 47.52064 9.53046 3113 ft 104 kts 14°
2026-04-28 18:17 47.52819 9.53399 3097 ft 120 kts 24°
2026-04-28 18:17 47.53614 9.53959 3056 ft 129 kts 26°
2026-04-28 18:18 47.54422 9.54575 3056 ft 131 kts 28°
2026-04-28 18:18 47.55233 9.55202 2958 ft 127 kts 28°
2026-04-28 18:18 47.55983 9.55828 2954 ft 121 kts 31°
2026-04-28 18:18 47.56454 9.56256 2971 ft 118 kts 33°
2026-04-28 18:19 47.57359 9.57184 2970 ft 117 kts 37°
2026-04-28 18:19 47.58009 9.57923 2956 ft 118 kts 38°
2026-04-28 18:19 47.58637 9.58706 2968 ft 117 kts 45°
2026-04-28 18:19 47.59204 9.59549 2983 ft 116 kts 43°
2026-04-28 18:20 47.59793 9.60326 3040 ft 113 kts 51°
2026-04-28 18:20 47.60011 9.61428 3049 ft 113 kts 101°
2026-04-28 18:20 47.59613 9.62388 3031 ft 114 kts 145°
2026-04-28 18:20 47.58912 9.62921 3002 ft 114 kts 170°
2026-04-28 18:21 47.58175 9.62613 2944 ft 116 kts 227°
2026-04-28 18:21 47.58052 9.61509 2925 ft 118 kts 298°
2026-04-28 18:21 47.58729 9.60924 2944 ft 120 kts
2026-04-28 18:21 47.59403 9.61543 2972 ft 120 kts 64°
2026-04-28 18:22 47.59303 9.62665 2977 ft 119 kts 131°
2026-04-28 18:22 47.58525 9.62959 2993 ft 128 kts 194°
2026-04-28 18:22 47.58001 9.61931 2905 ft 130 kts 274°
2026-04-28 18:22 47.58416 9.60857 2942 ft 118 kts 322°
2026-04-28 18:23 47.59009 9.60041 3110 ft 116 kts 323°
2026-04-28 18:23 47.59624 9.59236 3113 ft 123 kts 322°
2026-04-28 18:23 47.60261 9.58312 3194 ft 132 kts 324°
2026-04-28 18:23 47.60966 9.57485 3142 ft 126 kts 327°
2026-04-28 18:24 47.61670 9.56760 3098 ft 122 kts 330°
2026-04-28 18:24 47.62121 9.56295 3095 ft 117 kts 329°
2026-04-28 18:24 47.62995 9.55362 2886 ft 115 kts 329°
2026-04-28 18:24 47.63642 9.54664 2694 ft 117 kts 329°
2026-04-28 18:25 47.64319 9.53951 2422 ft 122 kts 328°
2026-04-28 18:25 47.64968 9.53241 2369 ft 112 kts 314°
2026-04-28 18:25 47.65144 9.52130 2249 ft 115 kts 263°
2026-04-28 18:26 47.64720 9.50054 2133 ft 93 kts 272°
2026-04-28 18:26 47.64951 9.49169 1911 ft 91 kts 316°
2026-04-28 18:26 47.65414 9.48584 1855 ft 84 kts 331°
2026-04-28 18:26 47.65940 9.48518 1734 ft 79 kts 24°
2026-04-28 18:27 47.66327 9.49076 1529 ft 70 kts 55°
2026-04-28 18:27 47.66542 9.49642 1410 ft 61 kts 55°
2026-04-28 18:27 47.66752 9.50175 1347 ft 56 kts 55°
2026-04-28 18:27 47.66917 9.50586 1347 ft 41 kts 61°
2026-04-28 18:28 47.67122 9.51120 1381 ft 75 kts 59°
2026-04-28 18:28 47.67382 9.51833 1618 ft 77 kts 57°
2026-04-28 18:28 47.67653 9.52541 1886 ft 77 kts 57°
2026-04-28 18:28 47.67977 9.53131 2188 ft 77 kts 21°
2026-04-28 18:29 47.68541 9.52901 2347 ft 97 kts 330°
2026-04-28 18:29 47.68978 9.52100 2444 ft 100 kts 289°
2026-04-28 18:29 47.68861 9.51045 2337 ft 109 kts 246°
2026-04-28 18:29 47.68460 9.50103 2295 ft 109 kts 234°
2026-04-28 18:30 47.68016 9.49204 2323 ft 108 kts 230°
2026-04-28 18:30 47.67854 9.48910 2352 ft 109 kts 230°
2026-04-28 18:30 47.67128 9.47659 2276 ft 92 kts 224°
2026-04-28 18:30 47.66587 9.47358 2156 ft 85 kts 156°
2026-04-28 18:31 47.66112 9.47850 1879 ft 84 kts 133°
2026-04-28 18:31 47.66065 9.48549 1709 ft 74 kts 49°
2026-04-28 18:31 47.66342 9.49141 1519 ft 66 kts 55°
2026-04-28 18:31 47.66571 9.49717 1412 ft 65 kts 56°
2026-04-28 18:32 47.66782 9.50261 1346 ft 52 kts 55°
2026-04-28 18:32 47.66944 9.50659 1347 ft 50 kts 60°
2026-04-28 18:32 47.67173 9.51261 1438 ft 75 kts 57°
2026-04-28 18:32 47.67419 9.51904 1746 ft 71 kts 55°
2026-04-28 18:33 47.67685 9.52563 2013 ft 71 kts 44°
2026-04-28 18:33 47.68173 9.52585 2248 ft 86 kts 336°
2026-04-28 18:33 47.68422 9.51719 2271 ft 105 kts 265°
2026-04-28 18:33 47.68149 9.50771 2297 ft 98 kts 241°
2026-04-28 18:34 47.67815 9.49897 2299 ft 96 kts 238°
2026-04-28 18:34 47.67484 9.49071 2456 ft 89 kts 239°
2026-04-28 18:34 47.67138 9.48268 2440 ft 96 kts 235°
2026-04-28 18:34 47.66744 9.47439 2402 ft 98 kts 231°
2026-04-28 18:35 47.66186 9.47291 2395 ft 86 kts 142°
2026-04-28 18:35 47.65903 9.47984 2020 ft 83 kts 80°
2026-04-28 18:35 47.66128 9.48699 1699 ft 75 kts 48°
2026-04-28 18:35 47.66405 9.49296 1475 ft 65 kts 59°
2026-04-28 18:36 47.66626 9.49860 1372 ft 62 kts 60°
2026-04-28 18:36 47.66816 9.50343 1347 ft 45 kts 59°
2026-04-28 18:36 47.66922 9.50602 1348 ft 17 kts 64°
2026-04-28 18:36 47.66977 9.50748 1349 ft 19 kts 60°
2026-04-28 18:37 47.67057 9.50955 1354 ft 27 kts 59°
2026-04-28 18:37 47.67129 9.51141 1357 ft 11 kts 58°
2026-04-28 18:37 47.67145 9.51210 1357 ft 8 kts 113°
2026-04-28 18:37 47.67072 9.51305 1356 ft 13 kts 141°
2026-04-28 18:38 47.67045 9.51334 1356 ft 2 kts 145°
2026-04-28 18:38 47.67012 9.51373 1357 ft 13 kts 150°
2026-04-28 18:38 47.66925 9.51300 1355 ft 17 kts 233°
2026-04-28 18:38 47.66910 9.51294 1355 ft 0 kts 326°